Location: Dzierzno
(50.6159°N, 19.2852°E)
Time: 06:18:04
(UTC+00:00)

Cosmos 1954 Rocket - Pass Details

Date: 18 November 2025
Orbit: 748 x 776 km, 74.0° (Epoch: 06 December)

Event Time Altitude Azimuth Distance (km) Brightness Sun altitude
Rises 16:26:24 0° 179° (S) 3,237 7.4 -14.6°
Reaches altitude 10° 16:28:53 10° 172° (S) 2,311 6.5 -15.0°
Maximum altitude 16:33:46 40° 104° (ESE) 1,121 4.4 -15.7°
Enters shadow 16:36:40 22° 48° (NE) 1,648 5.2 -16.2°
